GAOFEN-11 01

Last updated on Mon Jun 22 2026 00:02:52 GMT+0000 (Coordinated Universal Time)

1 43585U 18063A 26172.54827384 .00016745 00000+0 24737-3 0 9990 2 43585 97.1285 239.4163 0002615 338.4969 21.6176 15.55402749441029
UTC large
Height (km)
Speed (km/s)
/
Latitude / Longitude
Inclination (degrees)
Orbital Period (minutes)
Azimuth
Elevation
Range (km)
Doppler Factor

Next 0 passes for location: London (51.5072 / 0.1276)

No passes found over London.
GAOFEN-11 01